Find Starlink 32940

NORAD ID: 63568 Int'l Des: 2025-075 Owner: SPXS Country: US Constellation: starlink operational
LEOCIRCULAR

Live-Position

3D-Globus wird geladen...

Über Starlink 32940

Beschreibung wird geladen...

Nächste Überflüge

Passes for default location (London). Set your location on the main map for personalized predictions.

Höhenverlauf

Loading altitude history...

Zweizeiliger Elementsatz

1 63568U 25075W 26123.58504832 .00022287 00000-0 81674-3 0 9996
2 63568 43.0009 320.5223 0001566 262.3278 97.7396 15.27589000 60320
Epoch: 3. Mai 2026 • Age: 10 hours

Aktueller Status

Höhe 491.3 km
Geschwindigkeit 7.62 km/s
Subsatellitenpunkt -33.14°S, 46.79°W
Startdatum 13. Apr. 2025
Alter 1 years
Typ internet

Technische Details

Klassifizierung Payload
Masse 730.00 kg
Trockenmasse 700.00 kg
Gesamtmasse 730.00 kg
Länge 0.30 m
Durchmesser 4.10 m
Spannweite 29.00 m
Form Box + pan
Hersteller SPXS
Bus-Typ Starlink V2M
Phasenstatus In Orbit
Besitzer/Staat SPXS/US

Most Searched